Location: Cold Norton
(51.6667°N, 0.6667°E)
Time: 05:42:35
(UTC+00:00)

Geosat - Pass Details

Date: 18 November 2025
Orbit: 758 x 760 km, 108.0° (Epoch: 10 December)

Event Time Altitude Azimuth Distance (km) Brightness Sun altitude
Exits shadow 19:05:27 53° 199° (SSW) 929 4.4 -27.9°
Maximum altitude 19:06:17 62° 243° (WSW) 858 4.3 -28.0°
Drops below altitude 10° 19:11:16 10° 324° (NW) 2,302 6.9 -28.8°
Sets 19:13:35 0° 328° (NNW) 3,233 7.7 -29.1°
